Weather in Laval

Canada     45°36′19″N   73°44′03″W
temp.,
°C
wind,
m/s
gust,
m/s
humid.,
%
clouds,
%
prec.,
mm/h
press.,
hPa
HPBL,
m
22 january, fri
fri2201:000sw41191100 3.1 996644
04:00−2wsw51093100 0.1 998510
07:00−4wsw499298 0.1 999316
10:00−6wsw489044 0.0 1001370
13:00−5wsw588871 0.0 1002557
16:00−5wsw51088100 0.0 1004603
19:00−7w5109199 0.0 1007456
22:00−10w5108780 0.0 1010370
23 january, sat
sat2301:00−13w5118786 0.0 1011385
04:00−15w6118897 0.0 1013403
07:00−16w6119298 0.1 1014399
10:00−16w61094100 0.3 1016434
13:00−13w71188100 0.6 1017598
16:00−13w7138498 0.0 1017674
19:00−15w6138590 0.0 1019546
22:00−16w613841 0.0 1020532
24 january, sun
sun2401:00−16w614830 0.0 1019590
04:00−17w613830 0.0 1019490
07:00−18w613840 0.0 1020467
10:00−16w610850 0.0 1020545
13:00−13w598738 0.0 1018637
16:00−12w51087100 0.0 1018624
19:00−14w41090100 0.0 1020363
22:00−16wsw379380 0.0 1020177
25 january, mon
mon2501:00−17wsw389340 0.0 1020191
04:00−18w499232 0.0 1020243
07:00−18w499160 0.0 1020243
10:00−15w48900 0.0 1020347
13:00−12w589030 0.0 1019430
16:00−12wsw499293 0.0 1018336
19:00−14wsw359572 0.0 101998
22:00−16wsw23940 0.0 101932
26 january, tue
tue2601:00−17w12940 0.0 101921
04:00−18wsw12950 0.0 101821
07:00−19sw11960 0.0 101920
10:00−14wsw11920 0.0 1019159
13:00−11sw239034 0.0 1018341
16:00−11sw359376 0.0 1019202
19:00−13wsw379555 0.0 1021137
22:00−15wsw339416 0.0 102383